• In Österreich
  • Länderverzeichnis
  • Für 7 Tage
  • Wassertemperatur
  • Satellitenkarten
  • Wetterkarte
  • News
  • Widgets
  • user-avatar
    Anmelden

    Stündliche Wetter Nürnberg

    Heute, 17 Oktober, Mittwoch

    Zeit Temperatur Niederschläge Wind Luftdruck Luftfeuchtigkeit
    00:00 +12°C° 0 mm 0 m/S 736 mmHg 83%
    01:00 +12°C° 0 mm 0 m/S 736 mmHg 80%
    02:00 +12°C° 0 mm 0 m/S 736 mmHg 81%
    03:00 +11°C° 0 mm 0 m/S 736 mmHg 82%
    04:00 +11°C° 0 mm 0 m/S 736 mmHg 83%
    05:00 +11°C° 0 mm 0 m/S 736 mmHg 84%
    06:00 +11°C° 0 mm 0 m/S 736 mmHg 85%
    07:00 +10°C° 0 mm 0 m/S 736 mmHg 84%
    08:00 +12°C° 0 mm 0 m/S 736 mmHg 76%
    09:00 +14°C° 0 mm 0 m/S 736 mmHg 69%
    10:00 +17°C° 0 mm 0 m/S 737 mmHg 62%
    11:00 +18°C° 0 mm 0 m/S 736 mmHg 57%
    12:00 +21°C° 0 mm 1 m/S 736 mmHg 53%
    13:00 +23°C° 0 mm 1 m/S 736 mmHg 48%
    14:00 +22°C° 0 mm 1 m/S 736 mmHg 50%
    15:00 +22°C° 0 mm 1 m/S 736 mmHg 52%
    16:00 +22°C° 0 mm 1 m/S 735 mmHg 55%
    17:00 +20°C° 0 mm 1 m/S 735 mmHg 60%
    18:00 +16°C° 0 mm 0 m/S 735 mmHg 66%
    19:00 +14°C° 0 mm 0 m/S 735 mmHg 72%
    20:00 +13°C° 0 mm 0 m/S 736 mmHg 74%
    21:00 +13°C° 0 mm 0 m/S 736 mmHg 77%
    22:00 +12°C° 0 mm 0 m/S 736 mmHg 79%
    23:00 +12°C° 0 mm 0 m/S 736 mmHg 81%

    Morgen, 18 Oktober, Donnerstag

    Zeit Temperatur Niederschläge Wind Luftdruck Luftfeuchtigkeit
    00:00 +12°C° 0 mm 0 m/S 736 mmHg 82%
    01:00 +11°C° 0 mm 0 m/S 736 mmHg 84%
    02:00 +11°C° 0 mm 0 m/S 736 mmHg 85%
    03:00 +11°C° 0 mm 0 m/S 736 mmHg 86%
    04:00 +11°C° 0 mm 0 m/S 736 mmHg 87%
    05:00 +10°C° 0 mm 0 m/S 736 mmHg 87%
    06:00 +10°C° 0 mm 0 m/S 736 mmHg 88%
    07:00 +10°C° 0 mm 0 m/S 736 mmHg 89%
    08:00 +13°C° 0 mm 1 m/S 737 mmHg 81%
    09:00 +15°C° 0 mm 1 m/S 737 mmHg 74%
    10:00 +18°C° 0 mm 1 m/S 737 mmHg 66%
    11:00 +19°C° 0 mm 1 m/S 737 mmHg 62%
    12:00 +20°C° 0 mm 1 m/S 737 mmHg 57%
    13:00 +20°C° 0 mm 2 m/S 737 mmHg 53%
    14:00 +20°C° 0 mm 2 m/S 737 mmHg 55%
    15:00 +20°C° 0 mm 2 m/S 737 mmHg 57%
    16:00 +20°C° 0 mm 2 m/S 737 mmHg 59%
    17:00 +18°C° 0 mm 2 m/S 737 mmHg 66%
    18:00 +16°C° 0 mm 2 m/S 737 mmHg 73%
    19:00 +14°C° 0 mm 2 m/S 737 mmHg 80%
    20:00 +14°C° 0 mm 2 m/S 738 mmHg 83%
    21:00 +13°C° 0 mm 2 m/S 738 mmHg 86%
    22:00 +12°C° 0 mm 2 m/S 738 mmHg 90%
    23:00 +12°C° 0 mm 2 m/S 738 mmHg 91%

    übermorgen, 19 Oktober, Freitag

    Zeit Temperatur Niederschläge Wind Luftdruck Luftfeuchtigkeit
    00:00 +12°C° 0 mm 2 m/S 738 mmHg 91%
    01:00 +10°C° 0 mm 2 m/S 738 mmHg 92%
    02:00 +10°C° 0 mm 2 m/S 738 mmHg 93%
    03:00 +10°C° 0 mm 2 m/S 738 mmHg 93%
    04:00 +10°C° 0 mm 2 m/S 738 mmHg 94%
    05:00 +9°C° 0 mm 2 m/S 738 mmHg 94%
    06:00 +9°C° 0 mm 2 m/S 738 mmHg 94%
    07:00 +9°C° 0 mm 2 m/S 739 mmHg 94%
    08:00 +12°C° 0 mm 2 m/S 739 mmHg 86%
    09:00 +14°C° 0 mm 2 m/S 739 mmHg 78%
    10:00 +16°C° 0 mm 2 m/S 739 mmHg 70%
    11:00 +17°C° 0 mm 2 m/S 739 mmHg 65%
    12:00 +18°C° 0 mm 2 m/S 739 mmHg 60%
    13:00 +19°C° 0 mm 2 m/S 739 mmHg 55%
    14:00 +19°C° 0 mm 2 m/S 739 mmHg 57%
    15:00 +19°C° 0 mm 2 m/S 739 mmHg 59%
    16:00 +18°C° 0 mm 2 m/S 739 mmHg 61%
    17:00 +16°C° 0 mm 2 m/S 739 mmHg 69%
    18:00 +15°C° 0 mm 2 m/S 740 mmHg 77%
    19:00 +13°C° 0 mm 2 m/S 740 mmHg 85%
    20:00 +12°C° 0 mm 2 m/S 740 mmHg 88%
    21:00 +12°C° 0 mm 2 m/S 740 mmHg 90%
    22:00 +11°C° 0 mm 1 m/S 741 mmHg 93%
    23:00 +11°C° 0 mm 1 m/S 741 mmHg 93%

    20 Oktober, Samstag

    Zeit Temperatur Niederschläge Wind Luftdruck Luftfeuchtigkeit
    00:00 +10°C° 0 mm 1 m/S 741 mmHg 93%
    01:00 +10°C° 0 mm 1 m/S 741 mmHg 93%
    02:00 +10°C° 0 mm 1 m/S 741 mmHg 93%
    03:00 +10°C° 0 mm 1 m/S 741 mmHg 93%
    04:00 +10°C° 0 mm 1 m/S 741 mmHg 93%
    05:00 +10°C° 0 mm 1 m/S 742 mmHg 93%
    06:00 +9°C° 0 mm 1 m/S 742 mmHg 94%
    07:00 +9°C° 0 mm 1 m/S 742 mmHg 94%
    08:00 +11°C° 0 mm 1 m/S 743 mmHg 86%
    09:00 +13°C° 0 mm 1 m/S 743 mmHg 79%
    10:00 +15°C° 0 mm 1 m/S 743 mmHg 71%
    11:00 +16°C° 0 mm 2 m/S 743 mmHg 66%
    12:00 +17°C° 0 mm 2 m/S 743 mmHg 60%
    13:00 +17°C° 0 mm 2 m/S 743 mmHg 54%
    14:00 +17°C° 0 mm 2 m/S 743 mmHg 55%
    15:00 +17°C° 0 mm 2 m/S 743 mmHg 56%
    16:00 +16°C° 0 mm 2 m/S 743 mmHg 57%
    17:00 +15°C° 0 mm 2 m/S 744 mmHg 63%
    18:00 +13°C° 0 mm 2 m/S 744 mmHg 70%
    19:00 +10°C° 0 mm 2 m/S 744 mmHg 76%
    20:00 +9°C° 0 mm 2 m/S 744 mmHg 78%
    21:00 +8°C° 0 mm 2 m/S 745 mmHg 80%
    22:00 +8°C° 0 mm 2 m/S 745 mmHg 83%
    23:00 +7°C° 0 mm 2 m/S 745 mmHg 83%

    21 Oktober, Sonntag

    Zeit Temperatur Niederschläge Wind Luftdruck Luftfeuchtigkeit
    00:00 +8°C° 0 mm 1 m/S 745 mmHg 84%
    01:00 +7°C° 0 mm 1 m/S 745 mmHg 85%
    02:00 +7°C° 0 mm 1 m/S 745 mmHg 86%
    03:00 +7°C° 0 mm 1 m/S 745 mmHg 86%
    04:00 +6°C° 0 mm 1 m/S 745 mmHg 87%
    05:00 +6°C° 0 mm 1 m/S 745 mmHg 87%
    06:00 +6°C° 0 mm 1 m/S 745 mmHg 87%
    07:00 +6°C° 0 mm 1 m/S 745 mmHg 87%
    08:00 +8°C° 0 mm 1 m/S 744 mmHg 78%
    09:00 +10°C° 0 mm 1 m/S 744 mmHg 69%
    10:00 +13°C° 0 mm 1 m/S 744 mmHg 60%
    11:00 +14°C° 0 mm 1 m/S 744 mmHg 55%
    12:00 +16°C° 0 mm 1 m/S 743 mmHg 49%
    13:00 +18°C° 0 mm 1 m/S 743 mmHg 43%
    14:00 +18°C° 0 mm 1 m/S 743 mmHg 45%
    15:00 +18°C° 0 mm 1 m/S 743 mmHg 47%
    16:00 +16°C° 0 mm 1 m/S 742 mmHg 48%
    17:00 +14°C° 0 mm 1 m/S 742 mmHg 52%
    18:00 +12°C° 0 mm 1 m/S 742 mmHg 56%
    19:00 +10°C° 0 mm 1 m/S 742 mmHg 59%
    20:00 +10°C° 0 mm 1 m/S 742 mmHg 61%
    21:00 +9°C° 0 mm 1 m/S 742 mmHg 62%
    22:00 +8°C° 0 mm 0 m/S 742 mmHg 64%
    23:00 +7°C° 0 mm 0 m/S 742 mmHg 65%

    22 Oktober, Montag

    Zeit Temperatur Niederschläge Wind Luftdruck Luftfeuchtigkeit
    00:00 +7°C° 0 mm 0 m/S 742 mmHg 66%
    01:00 +7°C° 0 mm 0 m/S 742 mmHg 68%
    02:00 +6°C° 0 mm 0 m/S 742 mmHg 69%
    03:00 +6°C° 0 mm 0 m/S 742 mmHg 70%
    04:00 +6°C° 0 mm 0 m/S 742 mmHg 71%
    05:00 +6°C° 0 mm 0 m/S 742 mmHg 72%
    06:00 +5°C° 0 mm 0 m/S 742 mmHg 73%
    07:00 +5°C° 0 mm 0 m/S 742 mmHg 74%
    08:00 +7°C° 0 mm 0 m/S 743 mmHg 66%
    09:00 +11°C° 0 mm 1 m/S 743 mmHg 58%
    10:00 +13°C° 0 mm 1 m/S 743 mmHg 50%
    11:00 +14°C° 0 mm 1 m/S 743 mmHg 47%
    12:00 +15°C° 0 mm 2 m/S 743 mmHg 43%
    13:00 +17°C° 0 mm 2 m/S 743 mmHg 40%
    14:00 +16°C° 0 mm 2 m/S 743 mmHg 44%
    15:00 +16°C° 0 mm 3 m/S 743 mmHg 48%
    16:00 +14°C° 0 mm 3 m/S 742 mmHg 51%
    17:00 +13°C° 0 mm 3 m/S 743 mmHg 61%
    18:00 +11°C° 0 mm 3 m/S 743 mmHg 71%
    19:00 +9°C° 0 mm 3 m/S 743 mmHg 80%
    20:00 +9°C° 0 mm 3 m/S 743 mmHg 82%
    21:00 +9°C° 0 mm 3 m/S 744 mmHg 84%
    22:00 +9°C° 0 mm 3 m/S 744 mmHg 86%
    23:00 +8°C° 0 mm 3 m/S 744 mmHg 86%
    Mehr zeigen